Weather History for Troy, AL

Change the Weather History Date:

Thursday, March 15, 2012

  Actual Average Record
Temperature  
Mean Temperature 70 °F 56 °F  
Max Temperature 85 °F 70 °F 85 °F (2012)
Min Temperature 54 °F 43 °F 32 °F (2006)
Degree Days  
Heating Degree Days 0 9  
Month to date heating degree days 73 161  
Since 1 July heating degree days 1683 2080  
Cooling Degree Days 5 0  
Month to date cooling degree days 31 0  
Year to date cooling degree days 39 5  
Growing Degree Days 18 (Base 50)    
Moisture  
Dew Point 57 °F    
Average Humidity 66    
Maximum Humidity 100    
Minimum Humidity 32    
Precipitation  
Precipitation 0.00 in 0.19 in 3.24 in (2009)
Month to date precipitation 0.75 2.60  
Year to date precipitation 10.09 11.73  
Snow  
Snow 0.00 in - - ()
Month to date snowfall 0.0  
Since 1 July snowfall 0.0  
Snow Depth 0.00 in    
Sea Level Pressure  
Sea Level Pressure 30.24 in    
Wind  
Wind Speed 1 mph (NW)    
Max Wind Speed 9 mph    
Max Gust Speed 16 mph    
Visibility 5 miles    
Events Fog    
T = Trace of Precipitation, MM = Missing Value Source: NWS Daily Summary

Daily Weather History Graph

Daily Weather History Graph

Search for Another Location

Airport:

Trip Planner

Search our weather history database for the weather conditions in past years. The results will help you decide how hot, cold, wet, or windy it might be!

Date:

Astronomy

Mar. 15, 2012 Rise Set
Actual Time 6:53 AM CDT 6:52 PM CDT
Civil Twilight 6:29 AM CDT 7:16 PM CDT
Nautical Twilight 6:00 AM CDT 7:45 PM CDT
Astronomical Twilight 5:32 AM CDT 8:13 PM CDT
Moon 2:00 AM CDT (3/15) 12:29 PM CDT (3/15)
Length of Visible Light 12h 47m
Length of Day
11h 58m
Last Quarter, 43% of the Moon is Illuminated
Mar 15
Last Quarter
Mar 22
New
Mar 30
First Quarter
Apr 6
Full
Apr 13
Last Quarter

Hourly Weather History & Observations

Time (CDT) Temp. Heat Index Dew Point Humidity Pressure Visibility Wind Dir Wind Speed Gust Speed Precip Events Conditions
12:35 AM 57.2 °F - 55.4 °F 94% 30.24 in 9.0 mi Calm Calm - N/A   Partly Cloudy
12:53 AM 55.9 °F - 55.0 °F 97% 30.23 in 8.0 mi Calm Calm - N/A   Mostly Cloudy
1:02 AM 55.4 °F - 55.4 °F 100% 30.23 in 1.8 mi Calm Calm - N/A   Mostly Cloudy
1:08 AM 57.2 °F - 55.4 °F 94% 30.23 in 2.5 mi Calm Calm - N/A   Scattered Clouds
1:15 AM 55.4 °F - 55.4 °F 100% 30.23 in 6.0 mi Calm Calm - N/A   Scattered Clouds
1:22 AM 55.4 °F - 53.6 °F 94% 30.23 in 3.0 mi Calm Calm - N/A   Mostly Cloudy
1:26 AM 53.6 °F - 53.6 °F 100% 30.23 in 0.5 mi Calm Calm - N/A Fog Fog
1:53 AM 55.9 °F - 55.9 °F 100% 30.23 in 0.2 mi Calm Calm - N/A Fog Fog
2:04 AM 55.4 °F - 55.4 °F 100% 30.23 in 0.2 mi Calm Calm - N/A Fog Fog
2:26 AM 57.2 °F - 55.4 °F 94% 30.23 in 0.5 mi Calm Calm - N/A Fog Fog
2:53 AM 55.9 °F - 55.9 °F 100% 30.21 in 0.2 mi Calm Calm - N/A Fog Fog
3:53 AM 55.0 °F - 54.0 °F 96% 30.21 in 0.5 mi Calm Calm - N/A Fog Fog
4:53 AM 55.0 °F - 55.0 °F 100% 30.22 in 0.2 mi Calm Calm - N/A Fog Fog
5:37 AM 55.4 °F - 55.4 °F 100% 30.25 in 0.2 mi Calm Calm - N/A Fog Fog
5:53 AM 55.0 °F - 55.0 °F 100% 30.25 in 0.2 mi Calm Calm - N/A Fog Fog
6:07 AM 55.4 °F - 55.4 °F 100% 30.26 in 0.2 mi Calm Calm - N/A Fog Fog
6:53 AM 55.0 °F - 55.0 °F 100% 30.27 in 0.2 mi Calm Calm - N/A Fog Fog
7:10 AM 55.4 °F - 53.6 °F 94% 30.28 in 0.2 mi Calm Calm - N/A Fog Fog
7:53 AM 55.0 °F - 55.0 °F 100% 30.29 in 0.2 mi Calm Calm - N/A Fog Fog
8:53 AM 57.9 °F - 57.9 °F 100% 30.31 in 0.1 mi Calm Calm - 0.01 in Fog Fog
9:36 AM 62.6 °F - 62.6 °F 100% 30.32 in 1.0 mi Calm Calm - N/A   Overcast
9:39 AM 62.6 °F - 62.6 °F 100% 30.32 in 1.5 mi Calm Calm - N/A   Overcast
9:43 AM 62.6 °F - 62.6 °F 100% 30.32 in 3.0 mi Calm Calm - N/A   Overcast
9:53 AM 64.0 °F - 64.0 °F 100% 30.31 in 8.0 mi Calm Calm - N/A   Mostly Cloudy
10:00 AM 64.4 °F - 64.4 °F 100% 30.32 in 9.0 mi Calm Calm - N/A   Scattered Clouds
10:53 AM 73.9 °F - 64.0 °F 71% 30.30 in 10.0 mi Calm Calm - N/A   Clear
11:53 AM 79.0 °F - 61.0 °F 54% 30.29 in 10.0 mi Calm Calm - N/A   Clear
12:53 PM 80.1 °F 79.9 °F 53.1 °F 39% 30.26 in 10.0 mi WNW 3.5 mph - N/A   Clear
1:53 PM 82.0 °F 81.6 °F 55.9 °F 41% 30.22 in 10.0 mi Calm Calm - N/A   Partly Cloudy
2:53 PM 82.9 °F 82.0 °F 55.0 °F 38% 30.20 in 10.0 mi Variable 4.6 mph - N/A   Scattered Clouds
3:53 PM 82.9 °F - 52.0 °F 34% 30.18 in 10.0 mi Calm Calm - N/A   Clear
4:53 PM 84.0 °F - 52.0 °F 33% 30.17 in 10.0 mi NNW 3.5 mph - N/A   Partly Cloudy
5:53 PM 82.9 °F - 52.0 °F 34% 30.16 in 10.0 mi Calm Calm - N/A   Clear
6:53 PM 75.0 °F - 59.0 °F 57% 30.17 in 10.0 mi Calm Calm - N/A   Clear
7:53 PM 70.0 °F - 57.9 °F 65% 30.18 in 10.0 mi Calm Calm - N/A   Clear
8:53 PM 66.0 °F - 57.9 °F 75% 30.19 in 10.0 mi Calm Calm - N/A   Clear
9:53 PM 62.1 °F - 57.9 °F 86% 30.21 in 10.0 mi Calm Calm - N/A   Clear
10:53 PM 62.1 °F - 57.9 °F 86% 30.21 in 10.0 mi Calm Calm - N/A   Clear
11:53 PM 61.0 °F - 57.0 °F 87% 30.21 in 10.0 mi Calm Calm - N/A   Clear